Voltar ao catálogo

YAOGAN 34-04

AtivoMilitarLEO
NORAD 56157·PAYLOAD·🇨🇳 China
Este nome de satélite ainda não foi confirmado por fontes oficiais.

Lançado Mar 31, 2023 de Jiuquan Satellite Launch Center

Loading…

Próximas Passagens (próximas 24 horas)

TLE

AtualizadoSource: Space-Track

Época: Sep 14, 2026, 15:39 UTC

1 56157U 23048A   26257.65246721 -.00000066  00000-0  39471-4 0  9997
2 56157  63.3997 228.5578 0075079 356.0836   3.9593 13.45394730169979

Acompanhe YAOGAN 34-04 em tempo real com AllMySat

Download on the App Store